Weather Roundup
Issued by NWS

Home | Current Version | Previous Version | Graphics & Text | Print | Product List | Glossary Off
Versions: 1 2 3 4 5 6 7 8 9 10 11 12 13 14 15 16 17 18 19 20 21 22 23 24 25 26 27 28 29 30 31 32 33 34 35 36 37 38 39 40 41 42 43 44 45 46 47 48 49 50

000
NZUS93 KARX 241810
HRRWXR

CURRENT HOURLY OBSERVATIONS ACROSS
MUCH OF THE UPPER MISSISSIPPI VALLEY
NATIONAL WEATHER SERVICE LA CROSSE WI
1200 PM CST SAT JAN 24 2015


...SOUTHEAST MINNESOTA...


CITY           SKY/WX    TMP DP  RH WIND       PRES   REMARKS
ROCHESTER      SUNNY     33  29  85 W9        29.67F WCI  25
ROCHESTER/MAYO FAIR      37  30  73 W5        29.67F WCI  34
WINONA         PTSUNNY   37  32  81 NE3       29.67F
AUSTIN         SUNNY     36  30  80 W5        29.67F WCI  32
ALBERT LEA     SUNNY     37  34  87 W7        29.67F WCI  32
DODGE CENTER   SUNNY     34  32  93 SW8       29.65F WCI  27
PRESTON        SUNNY     33  29  86 W7        29.67F WCI  27
OWATONNA       SUNNY     36  30  80 W8        29.67F WCI  29
FARIBAULT      SUNNY     37  32  81 SW7       29.67F WCI  32
$$

...ELSEWHERE IN MINNESOTA...


CITY           SKY/WX    TMP DP  RH WIND       PRES   REMARKS
MINNEAPOLIS    MOSUNNY   38  31  76 SW7       29.66F WCI  33
INTNL FALLS    CLOUDY    25  14  63 NE12      29.66S WCI  14
DULUTH         CLOUDY    34  28  79 NW7       29.59F WCI  28
RED WING       SUNNY     39  30  70 W5        29.66F
REDWOOD FALLS  SUNNY     39  32  76 W14       29.65F WCI  31
MANKATO        SUNNY     39  32  75 SW5       29.66F
WORTHINGTON    MOSUNNY   36  30  80 W12       29.68F WCI  27
FAIRMONT       SUNNY     41  27  56 SW10      29.67F
$$

...SOUTHWEST WISCONSIN...


CITY           SKY/WX    TMP DP  RH WIND       PRES   REMARKS
LA CROSSE      CLOUDY    38  30  73 NW3       29.67F
PRAIRIE DU CHI SUNNY     39  31  72 CALM      29.69F
BOSCOBEL       CLOUDY    35  31  85 SW6       29.69F FOG     WCI  30
LONE ROCK      CLOUDY    33  30  88 W6        29.68F FOG     WCI  28
PLATTEVILLE    CLOUDY    32  31  97 W8        29.69F WCI  25
FORT MC COY    CLOUDY    33  31  93 W3        29.67F
CAMP DOUGLAS   CLOUDY    34  34 100 W8        29.64F WCI  27
VIROQUA        CLOUDY    33  33 100 W6        29.65F WCI  28
WIS DELLS      CLOUDY    33  30  89 W7        29.64F WCI  27
$$

...ELSEWHERE IN WISCONSIN...


CITY           SKY/WX    TMP DP  RH WIND       PRES   REMARKS
MILWAUKEE      PTSUNNY   42  30  62 W9        29.63F
MADISON        CLOUDY    32  29  88 VRB6      29.65F WCI  26
GREEN BAY      NOT AVBL
EAU CLAIRE     CLOUDY    36  30  79 W10       29.64F WCI  28
BLACK RVR FLS  CLOUDY    35  32  90 W8        29.65F WCI  28
MEDFORD        CLOUDY    35  30  82 W8        29.59F WCI  28
WAUSAU         NOT AVBL
WIS RAPIDS     NOT AVBL
MARSHFIELD     NOT AVBL
RICE LAKE      CLOUDY    34  30  85 W8        29.64F WCI  28
$$

...NORTHEAST IOWA...


CITY           SKY/WX    TMP DP  RH WIND       PRES   REMARKS
DECORAH        MOSUNNY   37  34  87 VRB5      29.67F WCI  34
MASON CITY     SUNNY     40  33  76 W13       29.70F WCI  32
CHARLES CITY   SUNNY     37  36  93 W8        29.70F WCI  31
OELWEIN        SUNNY     37  34  87 W12       29.70F WCI  30
$$

...ELSEWHERE IN IOWA...


CITY           SKY/WX    TMP DP  RH WIND       PRES   REMARKS
DES MOINES     MOSUNNY   47  32  56 W12       29.77F
IOWA CITY      SUNNY     43  33  68 W10       29.76F
FORT DODGE     SUNNY     39  34  81 W8        29.74F WCI  34
$$

...NORTHERN ILLINOIS...


CITY           SKY/WX    TMP DP  RH WIND       PRES   REMARKS
CHICAGO-OHARE  MOSUNNY   41  30  65 W15       29.67F
CHICAGO-MIDWAY MOSUNNY   42  31  64 W13       29.69F
MOLINE         SUNNY     43  32  65 W9        29.73F
ROCKFORD       MOSUNNY   38  30  73 SW10      29.69F WCI  31
PEORIA         SUNNY     44  34  67 W10       29.77F
$$

NOTE: "FAIR" INDICATES FEW OR NO CLOUDS BELOW 12,000 FEET WITH NO
SIGNIFICANT WEATHER AND/OR OBSTRUCTIONS TO VISIBILITY. WIND
SPEEDS ARE IN MILES-PER-HOUR.



USA.gov is the U.S. government's official web portal to all federal, state and local government web resources and services.